Tracking 20060 objects as of 6-Dec-2019
HD Live streaming from Space Station
objects crossing your sky now

OPS 9316 (IDSCS 6)

Track OPS 9316 (IDSCS 6) now!
OPS 9316 (IDSCS 6) is classified as:


NORAD ID: 2220
Int'l Code: 1966-053G
Perigee: 33,729.1 km
Apogee: 34,206.7 km
Inclination: 4.0 °
Period: 1,343.8 minutes
Semi major axis: 40338 km
RCS: 0.0794 m2 (small)
Launch date: June 16, 1966
Source: United States (US)
Launch site: AIR FORCE EASTERN TEST RANGE (AFETR)
aabbcc
Your satellite tracking list
Your tracking list is empty




NASA's NSSDC Master Catalog

Two Line Element Set (TLE):
1  2220U 66053G   19339.65981264 -.00000066 +00000-0 +00000-0 0  9995
2  2220 003.9844 060.1460 0059201 119.9537 259.8541 01.07156235113497
Source of the keplerian elements: AFSPC